Hyannis, MA

8:38 PM EST on December 05, 2019 (GMT -0500)
Barnstable Municipal-Boardman-Polando Field

Weather History for KHYA - October, 2019

Change the Weather History Date:

Tuesday, October 22, 2019

  Actual Average Record
Temperature  
Mean Temperature 57 °F -  
Max Temperature 64 °F 60 °F 73 °F (2017)
Min Temperature 50 °F 41 °F 21 °F (1960)
Degree Days  
Heating Degree Days 8    
Growing Degree Days 7 (Base 50)    
Moisture  
Dew Point 53 °F    
Average Humidity 84    
Maximum Humidity 93    
Minimum Humidity 63    
Precipitation  
Precipitation 0.09 in - - ()
Sea Level Pressure  
Sea Level Pressure 30.03 in    
Wind  
Wind Speed 7 mph ()    
Max Wind Speed 15 mph    
Max Gust Speed 26 mph    
Visibility 7.5 miles    
Events Rain    
Averages and records for this station are not official NWS values.
T = Trace of Precipitation, MM = Missing Value Source: Averaged Metar Reports

Daily Weather History Graph

Daily Weather History Graph

Search for Another Location

Airport or City:

Astronomy

Oct. 22, 2019 Rise Set
Actual Time 7:00 AM EDT 5:49 PM EDT
Civil Twilight 6:32 AM EDT 6:17 PM EDT
Nautical Twilight 6:00 AM EDT 6:50 PM EDT
Astronomical Twilight 5:28 AM EDT 7:22 PM EDT
Moon 12:00 AM EDT (10/22) 3:02 PM EDT (10/22)
Length of Visible Light 11h 45m
Length of Day
10h 48m
Last Quarter, 37% of the Moon is Illuminated
Oct 22
Last Quarter
Oct 27
New
Nov 4
First Quarter
Nov 12
Full
Nov 19
Last Quarter

Hourly Weather History & Observations

Time (EDT) Temp. Dew Point Humidity Pressure Visibility Wind Dir Wind Speed Gust Speed Precip Events Conditions
12:56 AM 51.1 °F 48.0 °F 89% 30.12 in 10.0 mi NNE 3.5 mph - N/A   Clear
1:56 AM 50.0 °F 48.0 °F 93% 30.13 in 8.0 mi NNE 3.5 mph - N/A   Clear
2:56 AM 52.0 °F 50.0 °F 93% 30.10 in 10.0 mi NNE 6.9 mph - N/A   Clear
3:56 AM 54.0 °F 51.1 °F 90% 30.09 in 10.0 mi NNE 8.1 mph - N/A   Partly Cloudy
4:15 AM 54.0 °F 51.1 °F 90% 30.08 in 10.0 mi NE 9.2 mph - N/A   Mostly Cloudy
4:26 AM 54.0 °F 52.0 °F 93% 30.08 in 10.0 mi NNE 8.1 mph - N/A   Scattered Clouds
4:56 AM 54.0 °F 51.1 °F 90% 30.09 in 10.0 mi NE 8.1 mph - N/A   Partly Cloudy
5:56 AM 53.1 °F 51.1 °F 93% 30.09 in 10.0 mi NE 8.1 mph - N/A   Clear
6:56 AM 54.0 °F 50.0 °F 86% 30.11 in 10.0 mi North 5.8 mph - N/A   Clear
7:56 AM 55.0 °F 51.1 °F 86% 30.10 in 10.0 mi NE 5.8 mph - N/A   Mostly Cloudy
8:56 AM 57.0 °F 52.0 °F 83% 30.12 in 10.0 mi NE 5.8 mph - N/A   Overcast
9:56 AM 59.0 °F 52.0 °F 78% 30.12 in 10.0 mi NNE 6.9 mph - N/A   Overcast
10:56 AM 61.0 °F 51.1 °F 70% 30.10 in 10.0 mi ENE 5.8 mph - N/A   Overcast
11:56 AM 63.0 °F 51.1 °F 65% 30.08 in 10.0 mi Variable 5.8 mph - N/A   Overcast
12:51 PM 64.4 °F 51.8 °F 64% 30.06 in 10.0 mi ENE 8.1 mph - N/A   Overcast
12:56 PM 63.0 °F 51.1 °F 65% 30.06 in 10.0 mi Variable 5.8 mph - N/A   Overcast
1:14 PM 64.0 °F 51.1 °F 63% 30.06 in 10.0 mi NE 8.1 mph - N/A   Overcast
1:56 PM 62.1 °F 50.0 °F 65% 30.05 in 10.0 mi ENE 9.2 mph - N/A   Overcast
2:56 PM 61.0 °F 51.1 °F 70% 30.04 in 10.0 mi NE 6.9 mph - N/A   Overcast
3:56 PM 60.1 °F 52.0 °F 75% 30.03 in 10.0 mi ENE 5.8 mph - N/A   Overcast
4:56 PM 59.0 °F 52.0 °F 78% 30.01 in 5.0 mi ENE 4.6 mph - N/A   Haze
5:56 PM 57.9 °F 54.0 °F 87% 29.99 in 10.0 mi ENE 11.5 mph - 0.00 in   Overcast
6:56 PM 59.0 °F 55.0 °F 87% 29.97 in 10.0 mi East 9.2 mph 17.3 mph N/A   Overcast
7:47 PM 59.0 °F 55.0 °F 87% 29.96 in 2.5 mi Variable 6.9 mph - 0.00 in Rain Light Rain
7:56 PM 59.0 °F 55.9 °F 90% 29.97 in 2.5 mi East 8.1 mph - 0.00 in Rain Light Rain
8:04 PM 59.0 °F 55.9 °F 90% 29.97 in 1.5 mi East 8.1 mph - 0.02 in Rain Light Rain
8:25 PM 59.0 °F 55.9 °F 90% 29.94 in 3.0 mi East 10.4 mph 17.3 mph 0.05 in Rain Light Rain
8:37 PM 59.0 °F 55.9 °F 90% 29.94 in 2.5 mi East 9.2 mph 20.7 mph 0.06 in Rain Light Rain
8:56 PM 59.0 °F 55.9 °F 90% 29.92 in 3.0 mi East 12.7 mph 24.2 mph 0.07 in Rain Light Rain
9:56 PM 59.0 °F 55.9 °F 90% 29.92 in 3.0 mi East 13.8 mph 21.9 mph 0.01 in Rain Light Rain
10:11 PM 59.0 °F 55.9 °F 90% 29.90 in 2.5 mi East 10.4 mph 20.7 mph 0.01 in Rain Light Rain
10:18 PM 57.9 °F 55.9 °F 93% 29.89 in 3.0 mi East 12.7 mph 26.5 mph 0.01 in Rain Light Rain
10:56 PM 59.0 °F 57.0 °F 93% 29.90 in 4.0 mi East 15.0 mph 24.2 mph 0.01 in   Overcast
11:56 PM 59.0 °F 57.0 °F 93% 29.86 in 4.0 mi ESE 9.2 mph 17.3 mph 0.00 in   Overcast